User: anonymous   Login
Location: Unspecified
(0.0000°N, 0.0000°E)
Time: 09:32:55
(UTC+00:00)
Language:

Tiros 6 - Orbit

View from above orbital plane
View from above orbital plane
View from above satellite
View from above satellite

Ground track
Ground track

The orbit data is extracted from the following two-line orbital elements,

1   397U 62047A   17295.91053474 -.00000017 +00000-0 +21475-4 0  9997
2   397 058.3045 112.9075 0014972 107.0537 253.2149 14.88222881941450
Epoch (UTC): 22 October 2017 21:51:10
Eccentricity: 0.0014972
inclination: 58.3045°
perigee height: 593 km
apogee height: 614 km
right ascension of ascending node: 112.9075°
argument of perigee: 107.0537°
revolutions per day: 14.88222881
mean anomaly at epoch: 253.2149°
orbit number at epoch: 94145

The dashed part of the orbit path shows where the satellite is in the earth's shadow,  

DLR